Date String (YYYY-MM-DD hh:mm:ss) UTC,Instrument flags,Ambient pressure (hPa),Sample flow (lpm),Bypass flow (lpm),Sample temperature (°C),Ambient temperature (°C),ASC tube jacket temperature (°C),LED temperature (°C),Box temperature (°C),Sample RH (%),Span deviation,Mass concentration (μg/m³),Mass concentration (μg/m³),Mass concentration (μg/m³)
DateTimeUTC,F1_M11,P_M11,Q1_M11,Q2_M11,T1_M11,T2_M11,T3_M11,T4_M11,T5_M11,U1_M11,ZSPAN_M11,X2_M11,X0_M11,X1_M11
2021-12-25 12:00:00,,0814.9,4.99,0.00,21.5,20.7,00.0,30.7,23.0,14.0,0000.0,0000.45,0002.71,0000.32
2021-12-25 12:01:00,,0815.1,5.00,0.00,21.5,20.7,00.0,30.7,23.1,14.0,0000.0,0000.45,0003.01,0000.31
2021-12-25 12:02:00,,0815.0,5.02,0.00,21.5,20.9,00.0,30.7,23.1,13.9,0000.0,0000.46,0003.40,0000.31
2021-12-25 12:03:00,,0815.2,4.99,0.00,21.6,21.7,00.0,30.7,23.4,14.0,0000.0,0000.47,0003.06,0000.32
2021-12-25 12:04:00,,0815.2,5.00,0.00,21.8,22.6,00.0,30.8,23.8,13.8,0000.0,0000.52,0002.89,0000.32
2021-12-25 12:05:00,,0814.9,4.99,0.00,21.9,22.8,00.0,30.8,23.9,13.3,0000.0,0000.55,0002.32,0000.33
2021-12-25 12:06:00,,0814.8,5.00,0.00,21.9,22.4,00.0,30.8,23.8,13.2,0000.0,0000.55,0001.83,0000.33
2021-12-25 12:07:00,,0815.1,5.00,0.00,21.9,22.2,00.0,30.8,23.6,13.2,0000.0,0000.57,0001.81,0000.33
2021-12-25 12:08:00,,0815.1,5.00,0.00,21.8,21.9,00.0,30.8,23.5,13.4,0000.0,0000.59,0001.90,0000.32
2021-12-25 12:09:00,,0815.1,5.01,0.00,21.8,21.7,00.0,30.8,23.5,13.4,0000.0,0000.60,0002.01,0000.32
2021-12-25 12:10:00,,0815.1,4.99,0.00,21.8,21.5,00.0,30.8,23.4,13.5,0000.0,0000.57,0001.95,0000.31
2021-12-25 12:11:00,,0814.9,5.00,0.00,21.7,21.4,00.0,30.8,23.3,13.6,0000.0,0000.55,0001.90,0000.31
2021-12-25 12:12:00,,0814.9,5.01,0.00,21.7,21.3,00.0,30.8,23.3,13.6,0000.0,0000.54,0001.61,0000.30
2021-12-25 12:13:00,,0814.8,5.00,0.00,21.7,21.2,00.0,30.8,23.3,13.5,0000.0,0000.53,0001.11,0000.31
2021-12-25 12:14:00,,0814.8,5.00,0.00,21.7,21.1,00.0,30.8,23.3,13.4,0000.0,0000.52,0001.86,0000.30
2021-12-25 12:15:00,,0814.9,5.01,0.00,21.6,21.1,00.0,30.8,23.2,13.4,0000.0,0000.51,0002.45,0000.30
2021-12-25 12:16:00,,0814.9,4.99,0.00,21.6,21.0,00.0,30.8,23.2,13.3,0000.0,0000.50,0002.41,0000.30
2021-12-25 12:17:00,,0814.9,5.00,0.00,21.6,20.9,00.0,30.7,23.2,13.5,0000.0,0000.50,0002.39,0000.30
2021-12-25 12:18:00,,0814.9,5.00,0.00,21.6,20.9,00.0,30.7,23.2,13.5,0000.0,0000.49,0002.36,0000.30
2021-12-25 12:19:00,,0814.9,5.01,0.00,21.6,20.8,00.0,30.7,23.2,13.6,0000.0,0000.50,0002.37,0000.30
2021-12-25 12:20:00,,0814.9,4.99,0.00,21.5,20.8,00.0,30.7,23.2,13.6,0000.0,0000.48,0002.23,0000.30
2021-12-25 12:21:00,,0814.9,5.01,0.00,21.5,20.8,00.0,30.7,23.1,13.6,0000.0,0000.52,0002.32,0000.31
2021-12-25 12:22:00,,0815.1,4.98,0.00,21.5,20.8,00.0,30.7,23.1,13.7,0000.0,0000.55,0002.39,0000.32
2021-12-25 12:23:00,,0815.0,5.00,0.00,21.5,20.8,00.0,30.6,23.1,13.7,0000.0,0000.58,0002.46,0000.32
2021-12-25 12:24:00,,0815.1,5.00,0.00,21.5,20.7,00.0,30.6,23.0,13.7,0000.0,0000.60,0002.50,0000.32
2021-12-25 12:25:00,,0815.1,5.00,0.00,21.4,20.6,00.0,30.6,23.0,13.8,0000.0,0000.60,0001.83,0000.32
2021-12-25 12:26:00,,0815.2,5.01,0.00,21.4,20.5,00.0,30.6,22.9,13.8,0000.0,0000.58,0001.10,0000.31
2021-12-25 12:27:00,,0815.2,5.00,0.00,21.3,20.4,00.0,30.6,22.8,13.9,0000.0,0000.56,0001.11,0000.30
2021-12-25 12:28:00,,0815.2,4.99,0.00,21.3,20.5,00.0,30.5,22.8,13.9,0000.0,0000.58,0001.30,0000.30
2021-12-25 12:29:00,,0815.1,5.00,0.00,21.4,21.4,00.0,30.6,23.1,14.0,0000.0,0000.56,0001.26,0000.30
2021-12-25 12:30:00,,0815.2,5.00,0.00,21.6,22.4,00.0,30.6,23.5,13.9,0000.0,0000.55,0001.39,0000.30
2021-12-25 12:31:00,,0815.2,5.01,0.00,21.7,22.8,00.0,30.7,23.7,13.7,0000.0,0000.55,0001.46,0000.30
2021-12-25 12:32:00,,0815.2,5.00,0.00,21.8,22.5,00.0,30.7,23.7,13.6,0000.0,0000.52,0001.37,0000.29
2021-12-25 12:33:00,,0815.3,4.99,0.00,21.8,22.2,00.0,30.7,23.6,13.8,0000.0,0000.49,0001.31,0000.29
2021-12-25 12:34:00,,0815.3,5.00,0.00,21.8,22.0,00.0,30.7,23.6,14.2,0000.0,0000.45,0001.21,0000.28
2021-12-25 12:35:00,,0815.4,5.02,0.00,21.8,21.8,00.0,30.7,23.5,13.9,0000.0,0000.43,0001.17,0000.28
2021-12-25 12:36:00,,0815.4,4.99,0.00,21.8,21.7,00.0,30.7,23.5,13.6,0000.0,0000.44,0001.22,0000.28
2021-12-25 12:37:00,,0815.5,5.00,0.00,21.8,21.6,00.0,30.7,23.5,13.5,0000.0,0000.41,0001.15,0000.28
2021-12-25 12:38:00,,0815.7,5.00,0.00,21.8,21.4,00.0,30.7,23.4,13.5,0000.0,0000.42,0001.14,0000.29
2021-12-25 12:39:00,,0815.9,5.01,0.00,21.7,21.3,00.0,30.7,23.4,13.6,0000.0,0000.40,0000.98,0000.29
2021-12-25 12:40:00,,0815.9,5.00,0.00,21.7,21.2,00.0,30.7,23.3,13.7,0000.0,0000.42,0001.07,0000.29
2021-12-25 12:41:00,,0816.0,4.99,0.00,21.7,21.2,00.0,30.7,23.4,13.9,0000.0,0000.43,0001.09,0000.29
2021-12-25 12:42:00,,0815.6,5.01,0.00,21.7,21.1,00.0,30.7,23.4,13.9,0000.0,0000.44,0001.26,0000.30
2021-12-25 12:43:00,,0815.7,5.01,0.00,21.7,21.1,00.0,30.7,23.3,13.9,0000.0,0000.45,0001.33,0000.30
2021-12-25 12:44:00,,0816.0,5.00,0.00,21.7,21.0,00.0,30.7,23.3,14.0,0000.0,0000.47,0001.40,0000.30
2021-12-25 12:45:00,,0816.0,5.00,0.00,21.6,21.0,00.0,30.7,23.2,13.9,0000.0,0000.49,0001.44,0000.31
2021-12-25 12:46:00,,0815.9,5.00,0.00,21.6,20.9,00.0,30.7,23.2,14.0,0000.0,0000.47,0001.41,0000.31
2021-12-25 12:47:00,,0815.8,5.01,0.00,21.6,20.9,00.0,30.7,23.1,14.0,0000.0,0000.46,0001.30,0000.31
2021-12-25 12:48:00,,0815.7,4.98,0.00,21.6,20.9,00.0,30.7,23.1,13.9,0000.0,0000.46,0001.27,0000.30
2021-12-25 12:49:00,,0815.7,5.00,0.00,21.5,20.9,00.0,30.7,23.1,14.1,0000.0,0000.46,0001.27,0000.30
2021-12-25 12:50:00,,0815.7,5.00,0.00,21.5,20.9,00.0,30.7,23.2,14.3,0000.0,0000.45,0001.34,0000.30
2021-12-25 12:51:00,,0815.7,4.98,0.00,21.5,20.9,00.0,30.6,23.2,14.6,0000.0,0000.43,0001.25,0000.30
2021-12-25 12:52:00,,0815.7,5.00,0.00,21.6,20.9,00.0,30.6,23.2,14.6,0000.0,0000.44,0001.13,0000.30
2021-12-25 12:53:00,,0815.7,5.00,0.00,21.6,20.9,00.0,30.6,23.2,14.4,0000.0,0000.44,0000.90,0000.30
2021-12-25 12:54:00,,0815.7,5.01,0.00,21.6,21.0,00.0,30.6,23.2,14.3,0000.0,0000.43,0000.86,0000.30
2021-12-25 12:55:00,,0815.7,4.99,0.00,21.6,21.0,00.0,30.6,23.3,14.2,0000.0,0000.46,0000.90,0000.31
2021-12-25 12:56:00,,0815.7,5.00,0.00,21.6,21.0,00.0,30.6,23.2,14.0,0000.0,0000.48,0000.95,0000.32
2021-12-25 12:57:00,,0815.7,5.00,0.00,21.6,21.0,00.0,30.6,23.2,14.1,0000.0,0000.50,0000.97,0000.32
2021-12-25 12:58:00,,0815.7,5.00,0.00,21.6,21.0,00.0,30.6,23.3,14.0,0000.0,0000.52,0001.01,0000.32
2021-12-25 12:59:00,,0815.7,5.01,0.00,21.6,21.0,00.0,30.6,23.3,14.1,0000.0,0000.52,0001.01,0000.32
